SKYTERRA 1

Last updated on Thu Oct 16 2025 00:02:46 GMT+0000 (Coordinated Universal Time)

1 37218U 10061A 25288.12544653 -.00000129 00000+0 00000+0 0 9995 2 37218 4.6023 50.8327 0005172 191.4903 85.4467 1.00271839 54739
UTC large
Height (km)
Speed (km/s)
/
Latitude / Longitude
Inclination (degrees)
Orbital Period (minutes)
Azimuth
Elevation
Range (km)
Doppler Factor

Next 0 passes for location: London (51.5072 / 0.1276)

Sorry there are no passes over London.